owner,sensor,date,latitude,longitude,vertical_datum,mass_concentration_of_oxygen_in_sea_water,qcFlag 
DISL,ioos:station:DISL:KATA:1,2016-03-01T00:00:00Z,30.2583,-88.2131,4.003,6.82,1111122 
DISL,ioos:station:DISL:KATA:1,2016-03-01T00:30:00Z,30.2583,-88.2131,3.971,6.06,1111122 
DISL,ioos:station:DISL:KATA:1,2016-03-01T01:00:00Z,30.2583,-88.2131,3.943,6.51,1111122 
DISL,ioos:station:DISL:KATA:1,2016-03-01T01:30:00Z,30.2583,-88.2131,3.911,6.75,1111122 
DISL,ioos:station:DISL:KATA:1,2016-03-01T02:00:00Z,30.2583,-88.2131,3.889,7.71,1111122 
DISL,ioos:station:DISL:KATA:1,2016-03-01T02:30:00Z,30.2583,-88.2131,3.862,6.99,1111122 
DISL,ioos:station:DISL:KATA:1,2016-03-01T03:00:00Z,30.2583,-88.2131,3.837,7.07,1111122 
DISL,ioos:station:DISL:KATA:1,2016-03-01T03:30:00Z,30.2583,-88.2131,3.815,6.84,1111122 
DISL,ioos:station:DISL:KATA:1,2016-03-01T04:00:00Z,30.2583,-88.2131,3.814,7.07,1111122 
DISL,ioos:station:DISL:KATA:1,2016-03-01T04:30:00Z,30.2583,-88.2131,3.808,6.48,1111122 
DISL,ioos:station:DISL:KATA:1,2016-03-01T05:00:00Z,30.2583,-88.2131,3.801,6.76,1111122 
DISL,ioos:station:DISL:KATA:1,2016-03-01T05:30:00Z,30.2583,-88.2131,3.798,6.09,1111122 
DISL,ioos:station:DISL:KATA:1,2016-03-01T06:00:00Z,30.2583,-88.2131,3.801,5.85,1111122 
DISL,ioos:station:DISL:KATA:1,2016-03-01T06:30:00Z,30.2583,-88.2131,3.8,4.43,1111122 
DISL,ioos:station:DISL:KATA:1,2016-03-01T07:00:00Z,30.2583,-88.2131,3.805,3.9,1111122 
DISL,ioos:station:DISL:KATA:1,2016-03-01T07:30:00Z,30.2583,-88.2131,3.805,3.74,1111122 
DISL,ioos:station:DISL:KATA:1,2016-03-01T08:00:00Z,30.2583,-88.2131,3.815,3.95,1111122 
DISL,ioos:station:DISL:KATA:1,2016-03-01T08:30:00Z,30.2583,-88.2131,3.816,3.34,1111122 
DISL,ioos:station:DISL:KATA:1,2016-03-01T09:00:00Z,30.2583,-88.2131,3.816,2.95,1111122 
DISL,ioos:station:DISL:KATA:1,2016-03-01T09:30:00Z,30.2583,-88.2131,3.824,2.7,1111122 
DISL,ioos:station:DISL:KATA:1,2016-03-01T10:00:00Z,30.2583,-88.2131,3.831,2.59,1111122 
DISL,ioos:station:DISL:KATA:1,2016-03-01T10:30:00Z,30.2583,-88.2131,3.842,2.36,1111122 
DISL,ioos:station:DISL:KATA:1,2016-03-01T11:00:00Z,30.2583,-88.2131,3.866,2.41,1111122 
DISL,ioos:station:DISL:KATA:1,2016-03-01T11:30:00Z,30.2583,-88.2131,3.887,2.74,1111122 
DISL,ioos:station:DISL:KATA:1,2016-03-01T12:00:00Z,30.2583,-88.2131,3.913,2.1,1111122 
DISL,ioos:station:DISL:KATA:1,2016-03-01T12:30:00Z,30.2583,-88.2131,3.932,2.35,1111122 
DISL,ioos:station:DISL:KATA:1,2016-03-01T13:00:00Z,30.2583,-88.2131,3.954,2.75,1111122 
DISL,ioos:station:DISL:KATA:1,2016-03-01T13:30:00Z,30.2583,-88.2131,3.982,3.19,1111122 
DISL,ioos:station:DISL:KATA:1,2016-03-01T14:00:00Z,30.2583,-88.2131,4.004,3.06,1111122 
DISL,ioos:station:DISL:KATA:1,2016-03-01T14:30:00Z,30.2583,-88.2131,4.016,2.61,1111122 
DISL,ioos:station:DISL:KATA:1,2016-03-01T15:00:00Z,30.2583,-88.2131,4.029,2.52,1111122 
DISL,ioos:station:DISL:KATA:1,2016-03-01T15:30:00Z,30.2583,-88.2131,4.047,2.71,1111122 
DISL,ioos:station:DISL:KATA:1,2016-03-01T16:00:00Z,30.2583,-88.2131,4.066,2.72,1111122 
DISL,ioos:station:DISL:KATA:1,2016-03-01T16:30:00Z,30.2583,-88.2131,4.089,2.61,1111122 
DISL,ioos:station:DISL:KATA:1,2016-03-01T17:00:00Z,30.2583,-88.2131,4.118,2.87,1111122 
DISL,ioos:station:DISL:KATA:1,2016-03-01T17:30:00Z,30.2583,-88.2131,4.137,2.52,1111122 
DISL,ioos:station:DISL:KATA:1,2016-03-01T18:00:00Z,30.2583,-88.2131,4.162,2.39,1111122 
DISL,ioos:station:DISL:KATA:1,2016-03-01T18:30:00Z,30.2583,-88.2131,4.182,2.41,1111122 
DISL,ioos:station:DISL:KATA:1,2016-03-01T19:00:00Z,30.2583,-88.2131,4.191,2.58,1111122 
DISL,ioos:station:DISL:KATA:1,2016-03-01T19:30:00Z,30.2583,-88.2131,4.205,2.59,1111122 
DISL,ioos:station:DISL:KATA:1,2016-03-01T20:00:00Z,30.2583,-88.2131,4.201,2.57,1111122 
DISL,ioos:station:DISL:KATA:1,2016-03-01T20:30:00Z,30.2583,-88.2131,4.206,2.54,1111122 
DISL,ioos:station:DISL:KATA:1,2016-03-01T21:00:00Z,30.2583,-88.2131,4.197,2.67,1111122 
DISL,ioos:station:DISL:KATA:1,2016-03-01T21:30:00Z,30.2583,-88.2131,4.189,3.03,1111122 
DISL,ioos:station:DISL:KATA:1,2016-03-01T22:00:00Z,30.2583,-88.2131,4.183,3.14,1111122 
DISL,ioos:station:DISL:KATA:1,2016-03-01T22:30:00Z,30.2583,-88.2131,4.173,3.73,1111122 
DISL,ioos:station:DISL:KATA:1,2016-03-01T23:00:00Z,30.2583,-88.2131,4.176,4.07,1111122 
DISL,ioos:station:DISL:KATA:1,2016-03-01T23:30:00Z,30.2583,-88.2131,4.164,5.48,1111122 
DISL,ioos:station:DISL:KATA:1,2016-03-02T00:00:00Z,30.2583,-88.2131,4.162,5.67,1111122 
DISL,ioos:station:DISL:KATA:1,2016-03-02T00:30:00Z,30.2583,-88.2131,4.145,6.7,1111122 
DISL,ioos:station:DISL:KATA:1,2016-03-02T01:00:00Z,30.2583,-88.2131,4.135,6.19,1111122 
DISL,ioos:station:DISL:KATA:1,2016-03-02T01:30:00Z,30.2583,-88.2131,4.132,5.31,1111122 
DISL,ioos:station:DISL:KATA:1,2016-03-02T02:00:00Z,30.2583,-88.2131,4.104,6.39,1111122 
DISL,ioos:station:DISL:KATA:1,2016-03-02T02:30:00Z,30.2583,-88.2131,4.091,6.68,1111122 
DISL,ioos:station:DISL:KATA:1,2016-03-02T03:00:00Z,30.2583,-88.2131,4.073,7.07,1111122 
DISL,ioos:station:DISL:KATA:1,2016-03-02T03:30:00Z,30.2583,-88.2131,4.041,7.0,1111122 
DISL,ioos:station:DISL:KATA:1,2016-03-02T04:00:00Z,30.2583,-88.2131,4.029,7.14,1111122 
DISL,ioos:station:DISL:KATA:1,2016-03-02T04:30:00Z,30.2583,-88.2131,4.028,6.81,1111122 
DISL,ioos:station:DISL:KATA:1,2016-03-02T05:00:00Z,30.2583,-88.2131,4.003,6.77,1111122 
DISL,ioos:station:DISL:KATA:1,2016-03-02T05:30:00Z,30.2583,-88.2131,3.978,6.83,1111122 
DISL,ioos:station:DISL:KATA:1,2016-03-02T06:00:00Z,30.2583,-88.2131,3.94,6.99,1111122 
DISL,ioos:station:DISL:KATA:1,2016-03-02T06:30:00Z,30.2583,-88.2131,3.864,8.06,1111122 
DISL,ioos:station:DISL:KATA:1,2016-03-02T07:00:00Z,30.2583,-88.2131,3.845,8.0,1111122 
DISL,ioos:station:DISL:KATA:1,2016-03-02T07:30:00Z,30.2583,-88.2131,3.89,8.87,1111122 
DISL,ioos:station:DISL:KATA:1,2016-03-02T08:00:00Z,30.2583,-88.2131,3.805,8.37,1111122 
DISL,ioos:station:DISL:KATA:1,2016-03-02T08:30:00Z,30.2583,-88.2131,3.752,8.66,1111122 
DISL,ioos:station:DISL:KATA:1,2016-03-02T09:00:00Z,30.2583,-88.2131,3.699,9.12,1111122 
DISL,ioos:station:DISL:KATA:1,2016-03-02T09:30:00Z,30.2583,-88.2131,3.646,9.33,1111122 
DISL,ioos:station:DISL:KATA:1,2016-03-02T10:00:00Z,30.2583,-88.2131,3.639,9.3,1111122 
DISL,ioos:station:DISL:KATA:1,2016-03-02T10:30:00Z,30.2583,-88.2131,3.631,9.41,1111122 
DISL,ioos:station:DISL:KATA:1,2016-03-02T11:00:00Z,30.2583,-88.2131,3.62,9.39,1111122 
DISL,ioos:station:DISL:KATA:1,2016-03-02T11:30:00Z,30.2583,-88.2131,3.59,9.48,1111122 
DISL,ioos:station:DISL:KATA:1,2016-03-02T12:00:00Z,30.2583,-88.2131,3.586,9.26,1111122 
DISL,ioos:station:DISL:KATA:1,2016-03-02T12:30:00Z,30.2583,-88.2131,3.577,9.0,1111122 
DISL,ioos:station:DISL:KATA:1,2016-03-02T13:00:00Z,30.2583,-88.2131,3.608,8.99,1111122 
DISL,ioos:station:DISL:KATA:1,2016-03-02T13:30:00Z,30.2583,-88.2131,3.656,9.04,1111122 
DISL,ioos:station:DISL:KATA:1,2016-03-02T14:00:00Z,30.2583,-88.2131,3.717,9.02,1111122 
DISL,ioos:station:DISL:KATA:1,2016-03-02T14:30:00Z,30.2583,-88.2131,3.794,8.9,1111122 
DISL,ioos:station:DISL:KATA:1,2016-03-02T15:00:00Z,30.2583,-88.2131,3.849,8.82,1111122 
DISL,ioos:station:DISL:KATA:1,2016-03-02T15:30:00Z,30.2583,-88.2131,3.883,8.8,1111122 
DISL,ioos:station:DISL:KATA:1,2016-03-02T16:00:00Z,30.2583,-88.2131,3.914,8.69,1111122 
DISL,ioos:station:DISL:KATA:1,2016-03-02T16:30:00Z,30.2583,-88.2131,3.929,8.72,1111122 
DISL,ioos:station:DISL:KATA:1,2016-03-02T17:00:00Z,30.2583,-88.2131,3.957,8.78,1111122 
DISL,ioos:station:DISL:KATA:1,2016-03-02T17:30:00Z,30.2583,-88.2131,3.988,8.71,1111122 
DISL,ioos:station:DISL:KATA:1,2016-03-02T18:00:00Z,30.2583,-88.2131,4.012,8.53,1111122 
DISL,ioos:station:DISL:KATA:1,2016-03-02T18:30:00Z,30.2583,-88.2131,4.05,8.22,1111122 
DISL,ioos:station:DISL:KATA:1,2016-03-02T19:00:00Z,30.2583,-88.2131,4.078,8.02,1111122 
DISL,ioos:station:DISL:KATA:1,2016-03-02T19:30:00Z,30.2583,-88.2131,4.103,7.86,1111122 
DISL,ioos:station:DISL:KATA:1,2016-03-02T20:00:00Z,30.2583,-88.2131,4.129,7.67,1111122 
DISL,ioos:station:DISL:KATA:1,2016-03-02T20:30:00Z,30.2583,-88.2131,4.148,7.57,1111122 
DISL,ioos:station:DISL:KATA:1,2016-03-02T21:00:00Z,30.2583,-88.2131,4.153,7.49,1111122 
DISL,ioos:station:DISL:KATA:1,2016-03-02T21:30:00Z,30.2583,-88.2131,4.15,7.44,1111122 
DISL,ioos:station:DISL:KATA:1,2016-03-02T22:00:00Z,30.2583,-88.2131,4.15,7.45,1111122 
DISL,ioos:station:DISL:KATA:1,2016-03-02T22:30:00Z,30.2583,-88.2131,4.139,7.48,1111122 
DISL,ioos:station:DISL:KATA:1,2016-03-02T23:00:00Z,30.2583,-88.2131,4.135,7.67,1111122 
DISL,ioos:station:DISL:KATA:1,2016-03-02T23:30:00Z,30.2583,-88.2131,4.121,7.64,1111122 
DISL,ioos:station:DISL:KATA:1,2016-03-03T00:00:00Z,30.2583,-88.2131,4.112,7.63,1111122 
DISL,ioos:station:DISL:KATA:1,2016-03-03T00:30:00Z,30.2583,-88.2131,4.102,7.49,1111122 
DISL,ioos:station:DISL:KATA:1,2016-03-03T01:00:00Z,30.2583,-88.2131,4.073,7.22,1111122 
DISL,ioos:station:DISL:KATA:1,2016-03-03T01:30:00Z,30.2583,-88.2131,4.04,7.38,1111122 
DISL,ioos:station:DISL:KATA:1,2016-03-03T02:00:00Z,30.2583,-88.2131,4.0,7.08,1111122 
DISL,ioos:station:DISL:KATA:1,2016-03-03T02:30:00Z,30.2583,-88.2131,3.971,6.87,1111122 
DISL,ioos:station:DISL:KATA:1,2016-03-03T03:00:00Z,30.2583,-88.2131,3.93,6.85,1111122 
DISL,ioos:station:DISL:KATA:1,2016-03-03T03:30:00Z,30.2583,-88.2131,3.891,6.86,1111122 
DISL,ioos:station:DISL:KATA:1,2016-03-03T04:00:00Z,30.2583,-88.2131,3.856,6.61,1111122 
DISL,ioos:station:DISL:KATA:1,2016-03-03T04:30:00Z,30.2583,-88.2131,3.818,6.61,1111122 
DISL,ioos:station:DISL:KATA:1,2016-03-03T05:00:00Z,30.2583,-88.2131,3.798,6.46,1111122 
DISL,ioos:station:DISL:KATA:1,2016-03-03T05:30:00Z,30.2583,-88.2131,3.769,6.4,1111122 
DISL,ioos:station:DISL:KATA:1,2016-03-03T06:00:00Z,30.2583,-88.2131,3.753,6.3,1111122 
DISL,ioos:station:DISL:KATA:1,2016-03-03T06:30:00Z,30.2583,-88.2131,3.738,6.09,1111122 
DISL,ioos:station:DISL:KATA:1,2016-03-03T07:00:00Z,30.2583,-88.2131,3.731,5.95,1111122 
DISL,ioos:station:DISL:KATA:1,2016-03-03T07:30:00Z,30.2583,-88.2131,3.73,5.81,1111122 
DISL,ioos:station:DISL:KATA:1,2016-03-03T08:00:00Z,30.2583,-88.2131,3.726,5.87,1111122 
DISL,ioos:station:DISL:KATA:1,2016-03-03T08:30:00Z,30.2583,-88.2131,3.724,6.08,1111122 
DISL,ioos:station:DISL:KATA:1,2016-03-03T09:00:00Z,30.2583,-88.2131,3.721,6.12,1111122 
DISL,ioos:station:DISL:KATA:1,2016-03-03T09:30:00Z,30.2583,-88.2131,3.719,6.11,1111122 
DISL,ioos:station:DISL:KATA:1,2016-03-03T10:00:00Z,30.2583,-88.2131,3.741,6.19,1111122 
DISL,ioos:station:DISL:KATA:1,2016-03-03T10:30:00Z,30.2583,-88.2131,3.766,6.07,1111122 
DISL,ioos:station:DISL:KATA:1,2016-03-03T11:00:00Z,30.2583,-88.2131,3.802,5.98,1111122 
DISL,ioos:station:DISL:KATA:1,2016-03-03T11:30:00Z,30.2583,-88.2131,3.842,5.79,1111122 
DISL,ioos:station:DISL:KATA:1,2016-03-03T12:00:00Z,30.2583,-88.2131,3.857,5.69,1111122 
DISL,ioos:station:DISL:KATA:1,2016-03-03T12:30:00Z,30.2583,-88.2131,3.893,5.82,1111122 
DISL,ioos:station:DISL:KATA:1,2016-03-03T13:00:00Z,30.2583,-88.2131,3.899,4.49,1111122 
DISL,ioos:station:DISL:KATA:1,2016-03-03T13:30:00Z,30.2583,-88.2131,3.907,3.96,1111122 
DISL,ioos:station:DISL:KATA:1,2016-03-03T14:00:00Z,30.2583,-88.2131,3.923,3.46,1111122 
DISL,ioos:station:DISL:KATA:1,2016-03-03T14:30:00Z,30.2583,-88.2131,3.955,3.35,1111122 
DISL,ioos:station:DISL:KATA:1,2016-03-03T15:00:00Z,30.2583,-88.2131,3.995,3.5,1111122 
DISL,ioos:station:DISL:KATA:1,2016-03-03T15:30:00Z,30.2583,-88.2131,4.011,3.75,1111122 
DISL,ioos:station:DISL:KATA:1,2016-03-03T16:00:00Z,30.2583,-88.2131,4.018,4.11,1111122 
DISL,ioos:station:DISL:KATA:1,2016-03-03T16:30:00Z,30.2583,-88.2131,3.996,4.39,1111122 
DISL,ioos:station:DISL:KATA:1,2016-03-03T17:00:00Z,30.2583,-88.2131,4.0,4.33,1111122 
DISL,ioos:station:DISL:KATA:1,2016-03-03T17:30:00Z,30.2583,-88.2131,4.007,4.31,1111122 
DISL,ioos:station:DISL:KATA:1,2016-03-03T18:00:00Z,30.2583,-88.2131,4.026,4.45,1111122 
DISL,ioos:station:DISL:KATA:1,2016-03-03T18:30:00Z,30.2583,-88.2131,4.051,4.27,1111122 
DISL,ioos:station:DISL:KATA:1,2016-03-03T19:00:00Z,30.2583,-88.2131,4.058,3.99,1111122 
DISL,ioos:station:DISL:KATA:1,2016-03-03T19:30:00Z,30.2583,-88.2131,4.06,4.05,1111122 
DISL,ioos:station:DISL:KATA:1,2016-03-03T20:00:00Z,30.2583,-88.2131,4.082,3.8,1111122 
DISL,ioos:station:DISL:KATA:1,2016-03-03T20:30:00Z,30.2583,-88.2131,4.12,3.57,1111122 
DISL,ioos:station:DISL:KATA:1,2016-03-03T21:00:00Z,30.2583,-88.2131,4.177,3.5,1111122 
DISL,ioos:station:DISL:KATA:1,2016-03-03T21:30:00Z,30.2583,-88.2131,4.218,3.65,1111122 
DISL,ioos:station:DISL:KATA:1,2016-03-03T22:00:00Z,30.2583,-88.2131,4.25,3.92,1111122 
DISL,ioos:station:DISL:KATA:1,2016-03-03T22:30:00Z,30.2583,-88.2131,4.275,3.85,1111122 
DISL,ioos:station:DISL:KATA:1,2016-03-03T23:00:00Z,30.2583,-88.2131,4.29,3.84,1111122 
DISL,ioos:station:DISL:KATA:1,2016-03-03T23:30:00Z,30.2583,-88.2131,4.32,3.83,1111122 
DISL,ioos:station:DISL:KATA:1,2016-03-04T00:00:00Z,30.2583,-88.2131,4.332,3.76,1111122 
DISL,ioos:station:DISL:KATA:1,2016-03-04T00:30:00Z,30.2583,-88.2131,4.384,3.95,1111122 
DISL,ioos:station:DISL:KATA:1,2016-03-04T01:00:00Z,30.2583,-88.2131,4.354,3.78,1111122 
DISL,ioos:station:DISL:KATA:1,2016-03-04T01:30:00Z,30.2583,-88.2131,4.341,3.86,1111122 
DISL,ioos:station:DISL:KATA:1,2016-03-04T02:00:00Z,30.2583,-88.2131,4.325,5.58,1111122 
DISL,ioos:station:DISL:KATA:1,2016-03-04T02:30:00Z,30.2583,-88.2131,4.238,6.24,1111122 
DISL,ioos:station:DISL:KATA:1,2016-03-04T03:00:00Z,30.2583,-88.2131,4.205,5.99,1111122 
DISL,ioos:station:DISL:KATA:1,2016-03-04T03:30:00Z,30.2583,-88.2131,4.058,5.94,1111122 
DISL,ioos:station:DISL:KATA:1,2016-03-04T04:00:00Z,30.2583,-88.2131,3.981,6.54,1111122 
DISL,ioos:station:DISL:KATA:1,2016-03-04T04:30:00Z,30.2583,-88.2131,3.915,6.91,1111122 
DISL,ioos:station:DISL:KATA:1,2016-03-04T05:00:00Z,30.2583,-88.2131,3.828,7.32,1111122 
DISL,ioos:station:DISL:KATA:1,2016-03-04T05:30:00Z,30.2583,-88.2131,3.762,7.35,1111122 
DISL,ioos:station:DISL:KATA:1,2016-03-04T06:00:00Z,30.2583,-88.2131,3.702,7.39,1111122 
DISL,ioos:station:DISL:KATA:1,2016-03-04T06:30:00Z,30.2583,-88.2131,3.631,7.58,1111122 
DISL,ioos:station:DISL:KATA:1,2016-03-04T07:00:00Z,30.2583,-88.2131,3.563,7.77,1111122 
DISL,ioos:station:DISL:KATA:1,2016-03-04T07:30:00Z,30.2583,-88.2131,3.54,7.84,1111122 
DISL,ioos:station:DISL:KATA:1,2016-03-04T08:00:00Z,30.2583,-88.2131,3.5,7.43,1111122 
DISL,ioos:station:DISL:KATA:1,2016-03-04T08:30:00Z,30.2583,-88.2131,3.504,7.41,1111122 
DISL,ioos:station:DISL:KATA:1,2016-03-04T09:00:00Z,30.2583,-88.2131,3.525,7.58,1111122 
DISL,ioos:station:DISL:KATA:1,2016-03-04T09:30:00Z,30.2583,-88.2131,3.566,7.51,1111122 
DISL,ioos:station:DISL:KATA:1,2016-03-04T10:00:00Z,30.2583,-88.2131,3.584,6.32,1111122 
DISL,ioos:station:DISL:KATA:1,2016-03-04T10:30:00Z,30.2583,-88.2131,3.625,6.35,1111122 
DISL,ioos:station:DISL:KATA:1,2016-03-04T11:00:00Z,30.2583,-88.2131,3.635,6.61,1111122 
DISL,ioos:station:DISL:KATA:1,2016-03-04T11:30:00Z,30.2583,-88.2131,3.665,6.51,1111122 
DISL,ioos:station:DISL:KATA:1,2016-03-04T12:00:00Z,30.2583,-88.2131,3.687,6.73,1111122 
DISL,ioos:station:DISL:KATA:1,2016-03-04T12:30:00Z,30.2583,-88.2131,3.697,6.86,1111122 
DISL,ioos:station:DISL:KATA:1,2016-03-04T13:00:00Z,30.2583,-88.2131,3.707,6.84,1111122 
DISL,ioos:station:DISL:KATA:1,2016-03-04T13:30:00Z,30.2583,-88.2131,3.705,6.89,1111122 
DISL,ioos:station:DISL:KATA:1,2016-03-04T14:00:00Z,30.2583,-88.2131,3.721,6.64,1111122 
DISL,ioos:station:DISL:KATA:1,2016-03-04T14:30:00Z,30.2583,-88.2131,3.719,6.33,1111122 
DISL,ioos:station:DISL:KATA:1,2016-03-04T15:00:00Z,30.2583,-88.2131,3.735,6.25,1111122 
DISL,ioos:station:DISL:KATA:1,2016-03-04T15:30:00Z,30.2583,-88.2131,3.763,6.21,1111122 
DISL,ioos:station:DISL:KATA:1,2016-03-04T16:00:00Z,30.2583,-88.2131,3.798,6.24,1111122 
DISL,ioos:station:DISL:KATA:1,2016-03-04T16:30:00Z,30.2583,-88.2131,3.828,6.39,1111122 
DISL,ioos:station:DISL:KATA:1,2016-03-04T17:00:00Z,30.2583,-88.2131,3.877,6.4,1111122 
DISL,ioos:station:DISL:KATA:1,2016-03-04T17:30:00Z,30.2583,-88.2131,3.931,6.28,1111122 
DISL,ioos:station:DISL:KATA:1,2016-03-04T18:00:00Z,30.2583,-88.2131,3.943,6.24,1111122 
DISL,ioos:station:DISL:KATA:1,2016-03-04T18:30:00Z,30.2583,-88.2131,3.982,6.19,1111122 
DISL,ioos:station:DISL:KATA:1,2016-03-04T19:00:00Z,30.2583,-88.2131,4.025,6.17,1111122 
DISL,ioos:station:DISL:KATA:1,2016-03-04T19:30:00Z,30.2583,-88.2131,4.054,6.11,1111122 
DISL,ioos:station:DISL:KATA:1,2016-03-04T20:00:00Z,30.2583,-88.2131,4.095,5.9,1111122 
DISL,ioos:station:DISL:KATA:1,2016-03-04T20:30:00Z,30.2583,-88.2131,4.119,5.76,1111122 
DISL,ioos:station:DISL:KATA:1,2016-03-04T21:00:00Z,30.2583,-88.2131,4.144,5.97,1111122 
DISL,ioos:station:DISL:KATA:1,2016-03-04T21:30:00Z,30.2583,-88.2131,4.174,6.13,1111122 
DISL,ioos:station:DISL:KATA:1,2016-03-04T22:00:00Z,30.2583,-88.2131,4.191,6.2,1111122 
DISL,ioos:station:DISL:KATA:1,2016-03-04T22:30:00Z,30.2583,-88.2131,4.202,6.18,1111122 
DISL,ioos:station:DISL:KATA:1,2016-03-04T23:00:00Z,30.2583,-88.2131,4.208,6.16,1111122 
DISL,ioos:station:DISL:KATA:1,2016-03-04T23:30:00Z,30.2583,-88.2131,4.21,6.21,1111122 
DISL,ioos:station:DISL:KATA:1,2016-03-05T00:00:00Z,30.2583,-88.2131,4.187,6.15,1111122 
DISL,ioos:station:DISL:KATA:1,2016-03-05T00:30:00Z,30.2583,-88.2131,4.173,6.01,1111122 
DISL,ioos:station:DISL:KATA:1,2016-03-05T01:00:00Z,30.2583,-88.2131,4.152,5.81,1111122 
DISL,ioos:station:DISL:KATA:1,2016-03-05T01:30:00Z,30.2583,-88.2131,4.123,5.65,1111122 
DISL,ioos:station:DISL:KATA:1,2016-03-05T02:00:00Z,30.2583,-88.2131,4.098,5.29,1111122 
DISL,ioos:station:DISL:KATA:1,2016-03-05T02:30:00Z,30.2583,-88.2131,4.068,5.24,1111122 
DISL,ioos:station:DISL:KATA:1,2016-03-05T03:00:00Z,30.2583,-88.2131,4.047,5.3,1111122 
DISL,ioos:station:DISL:KATA:1,2016-03-05T03:30:00Z,30.2583,-88.2131,4.016,5.53,1111122 
DISL,ioos:station:DISL:KATA:1,2016-03-05T04:00:00Z,30.2583,-88.2131,3.987,5.61,1111122 
DISL,ioos:station:DISL:KATA:1,2016-03-05T04:30:00Z,30.2583,-88.2131,3.951,5.79,1111122 
DISL,ioos:station:DISL:KATA:1,2016-03-05T05:00:00Z,30.2583,-88.2131,3.897,5.93,1111122 
DISL,ioos:station:DISL:KATA:1,2016-03-05T05:30:00Z,30.2583,-88.2131,3.862,5.86,1111122 
DISL,ioos:station:DISL:KATA:1,2016-03-05T06:00:00Z,30.2583,-88.2131,3.818,5.89,1111122 
DISL,ioos:station:DISL:KATA:1,2016-03-05T06:30:00Z,30.2583,-88.2131,3.756,5.71,1111122 
DISL,ioos:station:DISL:KATA:1,2016-03-05T07:00:00Z,30.2583,-88.2131,3.699,5.88,1111122 
DISL,ioos:station:DISL:KATA:1,2016-03-05T07:30:00Z,30.2583,-88.2131,3.664,5.96,1111122 
DISL,ioos:station:DISL:KATA:1,2016-03-05T08:00:00Z,30.2583,-88.2131,3.618,5.17,1111122 
DISL,ioos:station:DISL:KATA:1,2016-03-05T08:30:00Z,30.2583,-88.2131,3.586,5.11,1111122 
DISL,ioos:station:DISL:KATA:1,2016-03-05T09:00:00Z,30.2583,-88.2131,3.562,5.4,1111122 
DISL,ioos:station:DISL:KATA:1,2016-03-05T09:30:00Z,30.2583,-88.2131,3.562,4.92,1111122 
DISL,ioos:station:DISL:KATA:1,2016-03-05T10:00:00Z,30.2583,-88.2131,3.573,3.71,1111122 
DISL,ioos:station:DISL:KATA:1,2016-03-05T10:30:00Z,30.2583,-88.2131,3.595,3.73,1111122 
DISL,ioos:station:DISL:KATA:1,2016-03-05T11:00:00Z,30.2583,-88.2131,3.625,3.44,1111122 
DISL,ioos:station:DISL:KATA:1,2016-03-05T11:30:00Z,30.2583,-88.2131,3.65,3.35,1111122 
DISL,ioos:station:DISL:KATA:1,2016-03-05T12:00:00Z,30.2583,-88.2131,3.678,3.28,1111122 
DISL,ioos:station:DISL:KATA:1,2016-03-05T12:30:00Z,30.2583,-88.2131,3.697,3.17,1111122 
DISL,ioos:station:DISL:KATA:1,2016-03-05T13:00:00Z,30.2583,-88.2131,3.707,3.18,1111122 
DISL,ioos:station:DISL:KATA:1,2016-03-05T13:30:00Z,30.2583,-88.2131,3.726,3.04,1111122 
DISL,ioos:station:DISL:KATA:1,2016-03-05T14:00:00Z,30.2583,-88.2131,3.741,2.99,1111122 
DISL,ioos:station:DISL:KATA:1,2016-03-05T14:30:00Z,30.2583,-88.2131,3.759,2.75,1111122 
DISL,ioos:station:DISL:KATA:1,2016-03-05T15:00:00Z,30.2583,-88.2131,3.79,2.6,1111122 
DISL,ioos:station:DISL:KATA:1,2016-03-05T15:30:00Z,30.2583,-88.2131,3.826,2.63,1111122 
DISL,ioos:station:DISL:KATA:1,2016-03-05T16:00:00Z,30.2583,-88.2131,3.859,2.76,1111122 
DISL,ioos:station:DISL:KATA:1,2016-03-05T16:30:00Z,30.2583,-88.2131,3.89,2.96,1111122 
DISL,ioos:station:DISL:KATA:1,2016-03-05T17:00:00Z,30.2583,-88.2131,3.91,3.07,1111122 
DISL,ioos:station:DISL:KATA:1,2016-03-05T17:30:00Z,30.2583,-88.2131,3.934,3.3,1111122 
DISL,ioos:station:DISL:KATA:1,2016-03-05T18:00:00Z,30.2583,-88.2131,3.959,3.54,1111122 
DISL,ioos:station:DISL:KATA:1,2016-03-05T18:30:00Z,30.2583,-88.2131,3.979,3.79,1111122 
DISL,ioos:station:DISL:KATA:1,2016-03-05T19:00:00Z,30.2583,-88.2131,3.999,3.78,1111122 
DISL,ioos:station:DISL:KATA:1,2016-03-05T19:30:00Z,30.2583,-88.2131,4.026,3.73,1111122 
DISL,ioos:station:DISL:KATA:1,2016-03-05T20:00:00Z,30.2583,-88.2131,4.052,3.92,1111122 
DISL,ioos:station:DISL:KATA:1,2016-03-05T20:30:00Z,30.2583,-88.2131,4.075,3.99,1111122 
DISL,ioos:station:DISL:KATA:1,2016-03-05T21:00:00Z,30.2583,-88.2131,4.098,3.94,1111122 
DISL,ioos:station:DISL:KATA:1,2016-03-05T21:30:00Z,30.2583,-88.2131,4.117,4.12,1111122 
DISL,ioos:station:DISL:KATA:1,2016-03-05T22:00:00Z,30.2583,-88.2131,4.144,4.21,1111122 
DISL,ioos:station:DISL:KATA:1,2016-03-05T22:30:00Z,30.2583,-88.2131,4.165,4.25,1111122 
DISL,ioos:station:DISL:KATA:1,2016-03-05T23:00:00Z,30.2583,-88.2131,4.181,4.51,1111122 
DISL,ioos:station:DISL:KATA:1,2016-03-05T23:30:00Z,30.2583,-88.2131,4.185,4.7,1111122 
DISL,ioos:station:DISL:KATA:1,2016-03-06T00:00:00Z,30.2583,-88.2131,4.181,4.52,1111122 
DISL,ioos:station:DISL:KATA:1,2016-03-06T00:30:00Z,30.2583,-88.2131,4.17,4.67,1111122 
DISL,ioos:station:DISL:KATA:1,2016-03-06T01:00:00Z,30.2583,-88.2131,4.157,4.68,1111122 
DISL,ioos:station:DISL:KATA:1,2016-03-06T01:30:00Z,30.2583,-88.2131,4.156,4.7,1111122 
DISL,ioos:station:DISL:KATA:1,2016-03-06T02:00:00Z,30.2583,-88.2131,4.147,4.52,1111122 
DISL,ioos:station:DISL:KATA:1,2016-03-06T02:30:00Z,30.2583,-88.2131,4.126,4.58,1111122 
DISL,ioos:station:DISL:KATA:1,2016-03-06T03:00:00Z,30.2583,-88.2131,4.11,4.59,1111122 
DISL,ioos:station:DISL:KATA:1,2016-03-06T03:30:00Z,30.2583,-88.2131,4.083,4.7,1111122 
DISL,ioos:station:DISL:KATA:1,2016-03-06T04:00:00Z,30.2583,-88.2131,4.042,4.89,1111122 
DISL,ioos:station:DISL:KATA:1,2016-03-06T04:30:00Z,30.2583,-88.2131,4.004,4.71,1111122 
DISL,ioos:station:DISL:KATA:1,2016-03-06T05:00:00Z,30.2583,-88.2131,3.954,4.66,1111122 
DISL,ioos:station:DISL:KATA:1,2016-03-06T05:30:00Z,30.2583,-88.2131,3.914,4.56,1111122 
DISL,ioos:station:DISL:KATA:1,2016-03-06T06:00:00Z,30.2583,-88.2131,3.865,4.24,1111122 
DISL,ioos:station:DISL:KATA:1,2016-03-06T06:30:00Z,30.2583,-88.2131,3.817,4.12,1111122 
DISL,ioos:station:DISL:KATA:1,2016-03-06T07:00:00Z,30.2583,-88.2131,3.775,3.8,1111122 
DISL,ioos:station:DISL:KATA:1,2016-03-06T07:30:00Z,30.2583,-88.2131,3.732,3.54,1111122 
DISL,ioos:station:DISL:KATA:1,2016-03-06T08:00:00Z,30.2583,-88.2131,3.682,3.34,1111122 
DISL,ioos:station:DISL:KATA:1,2016-03-06T08:30:00Z,30.2583,-88.2131,3.642,2.99,1111122 
DISL,ioos:station:DISL:KATA:1,2016-03-06T09:00:00Z,30.2583,-88.2131,3.642,2.99,1111122 
DISL,ioos:station:DISL:KATA:1,2016-03-06T09:30:00Z,30.2583,-88.2131,3.59,2.99,1111122 
DISL,ioos:station:DISL:KATA:1,2016-03-06T10:00:00Z,30.2583,-88.2131,3.568,2.91,1111122 
DISL,ioos:station:DISL:KATA:1,2016-03-06T10:30:00Z,30.2583,-88.2131,3.558,2.64,1111122 
DISL,ioos:station:DISL:KATA:1,2016-03-06T11:00:00Z,30.2583,-88.2131,3.551,2.75,1111122 
DISL,ioos:station:DISL:KATA:1,2016-03-06T11:30:00Z,30.2583,-88.2131,3.544,2.78,1111122 
DISL,ioos:station:DISL:KATA:1,2016-03-06T12:00:00Z,30.2583,-88.2131,3.532,2.55,1111122 
DISL,ioos:station:DISL:KATA:1,2016-03-06T12:30:00Z,30.2583,-88.2131,3.535,2.6,1111122 
DISL,ioos:station:DISL:KATA:1,2016-03-06T13:00:00Z,30.2583,-88.2131,3.541,2.63,1111122 
DISL,ioos:station:DISL:KATA:1,2016-03-06T13:30:00Z,30.2583,-88.2131,3.563,2.96,1111122 
DISL,ioos:station:DISL:KATA:1,2016-03-06T14:00:00Z,30.2583,-88.2131,3.59,2.88,1111122 
DISL,ioos:station:DISL:KATA:1,2016-03-06T14:30:00Z,30.2583,-88.2131,3.622,2.76,1111122 
DISL,ioos:station:DISL:KATA:1,2016-03-06T15:00:00Z,30.2583,-88.2131,3.656,2.88,1111122 
DISL,ioos:station:DISL:KATA:1,2016-03-06T15:30:00Z,30.2583,-88.2131,3.689,2.92,1111122 